• In Deutschland
  • Länderverzeichnis
  • Für 7 Tage
  • Wassertemperatur
  • Satellitenkarten
  • Wetterkarte
  • Widgets
  • user-avatar
    Anmelden

    Stündliche Wetter Salzburg

    Heute, 29 Mai, Montag

    Zeit Temperatur Niederschläge Wind Luftdruck Luftfeuchtigkeit
    00:00 +7°C° 0 mm 1 m/S 628 mmHg 82%
    01:00 +6°C° 0 mm 2 m/S 628 mmHg 75%
    02:00 +6°C° 0 mm 2 m/S 628 mmHg 74%
    03:00 +6°C° 0 mm 2 m/S 627 mmHg 72%
    04:00 +5°C° 0 mm 2 m/S 627 mmHg 71%
    05:00 +9°C° 0 mm 1 m/S 628 mmHg 68%
    06:00 +11°C° 0 mm 1 m/S 629 mmHg 65%
    07:00 +14°C° 0 mm 1 m/S 630 mmHg 58%
    08:00 +16°C° 0 mm 1 m/S 630 mmHg 54%
    09:00 +19°C° 0 mm 1 m/S 631 mmHg 49%
    10:00 +19°C° 0 mm 0 m/S 631 mmHg 44%
    11:00 +21°C° 0 mm 1 m/S 632 mmHg 43%
    12:00 +22°C° 0 mm 1 m/S 632 mmHg 42%
    13:00 +23°C° 0 mm 1 m/S 632 mmHg 40%
    14:00 +22°C° 0,1 mm 1 m/S 631 mmHg 43%
    15:00 +22°C° 0,1 mm 1 m/S 631 mmHg 46%
    16:00 +22°C° 0,1 mm 1 m/S 630 mmHg 49%
    17:00 +20°C° 0,2 mm 1 m/S 629 mmHg 60%
    18:00 +18°C° 0,2 mm 1 m/S 629 mmHg 71%
    19:00 +15°C° 0,2 mm 1 m/S 628 mmHg 82%
    20:00 +12°C° 0,2 mm 1 m/S 627 mmHg 85%
    21:00 +10°C° 0,2 mm 1 m/S 626 mmHg 87%
    22:00 +8°C° 0,2 mm 1 m/S 626 mmHg 90%
    23:00 +8°C° 0 mm 1 m/S 626 mmHg 88%

    Morgen, 30 Mai, Dienstag

    Zeit Temperatur Niederschläge Wind Luftdruck Luftfeuchtigkeit
    00:00 +8°C° 0 mm 1 m/S 626 mmHg 86%
    01:00 +8°C° 0 mm 1 m/S 626 mmHg 85%
    02:00 +8°C° 0 mm 1 m/S 626 mmHg 85%
    03:00 +8°C° 0 mm 1 m/S 626 mmHg 85%
    04:00 +7°C° 0 mm 1 m/S 625 mmHg 85%
    05:00 +10°C° 0 mm 1 m/S 627 mmHg 80%
    06:00 +12°C° 0 mm 1 m/S 628 mmHg 75%
    07:00 +15°C° 0 mm 1 m/S 629 mmHg 71%
    08:00 +16°C° 0 mm 1 m/S 629 mmHg 65%
    09:00 +19°C° 0 mm 1 m/S 630 mmHg 60%
    10:00 +21°C° 0 mm 1 m/S 630 mmHg 54%
    11:00 +21°C° 0,3 mm 1 m/S 630 mmHg 58%
    12:00 +21°C° 0,3 mm 1 m/S 630 mmHg 62%
    13:00 +20°C° 0,3 mm 2 m/S 630 mmHg 65%
    14:00 +20°C° 1,4 mm 1 m/S 630 mmHg 69%
    15:00 +20°C° 1,4 mm 1 m/S 630 mmHg 72%
    16:00 +19°C° 1,4 mm 1 m/S 629 mmHg 75%
    17:00 +18°C° 1,6 mm 1 m/S 629 mmHg 81%
    18:00 +15°C° 1,6 mm 1 m/S 629 mmHg 88%
    19:00 +14°C° 1,6 mm 1 m/S 628 mmHg 94%
    20:00 +13°C° 0,9 mm 1 m/S 628 mmHg 95%
    21:00 +12°C° 0,9 mm 1 m/S 628 mmHg 96%
    22:00 +11°C° 0,9 mm 1 m/S 629 mmHg 97%
    23:00 +11°C° 0,5 mm 1 m/S 629 mmHg 97%

    übermorgen, 31 Mai, Mittwoch

    Zeit Temperatur Niederschläge Wind Luftdruck Luftfeuchtigkeit
    00:00 +11°C° 0,5 mm 1 m/S 629 mmHg 97%
    01:00 +11°C° 0,5 mm 1 m/S 629 mmHg 97%
    02:00 +11°C° 0,2 mm 1 m/S 629 mmHg 97%
    03:00 +10°C° 0,2 mm 1 m/S 629 mmHg 97%
    04:00 +10°C° 0,2 mm 1 m/S 629 mmHg 97%
    05:00 +11°C° 0,1 mm 1 m/S 629 mmHg 95%
    06:00 +12°C° 0,1 mm 1 m/S 630 mmHg 93%
    07:00 +13°C° 0,1 mm 1 m/S 630 mmHg 92%
    08:00 +14°C° 0,2 mm 1 m/S 631 mmHg 86%
    09:00 +15°C° 0,2 mm 1 m/S 631 mmHg 81%
    10:00 +16°C° 0,2 mm 1 m/S 631 mmHg 76%
    11:00 +18°C° 0,9 mm 1 m/S 631 mmHg 76%
    12:00 +18°C° 0,9 mm 1 m/S 631 mmHg 77%
    13:00 +17°C° 0,9 mm 2 m/S 631 mmHg 77%
    14:00 +18°C° 1,1 mm 1 m/S 631 mmHg 78%
    15:00 +18°C° 1,1 mm 1 m/S 631 mmHg 79%
    16:00 +18°C° 1,1 mm 1 m/S 631 mmHg 80%
    17:00 +16°C° 0,8 mm 1 m/S 631 mmHg 84%
    18:00 +15°C° 0,8 mm 1 m/S 630 mmHg 89%
    19:00 +13°C° 0,8 mm 0 m/S 630 mmHg 93%
    20:00 +11°C° 0,9 mm 0 m/S 629 mmHg 95%
    21:00 +9°C° 0,9 mm 0 m/S 629 mmHg 96%
    22:00 +7°C° 0,9 mm 0 m/S 628 mmHg 97%
    23:00 +7°C° 0,3 mm 0 m/S 628 mmHg 97%

    1 Juni, Donnerstag

    Zeit Temperatur Niederschläge Wind Luftdruck Luftfeuchtigkeit
    00:00 +7°C° 0,3 mm 0 m/S 628 mmHg 97%
    01:00 +7°C° 0,3 mm 0 m/S 628 mmHg 97%
    02:00 +7°C° 0,1 mm 0 m/S 628 mmHg 98%
    03:00 +7°C° 0,1 mm 0 m/S 628 mmHg 98%
    04:00 +6°C° 0,1 mm 0 m/S 628 mmHg 98%
    05:00 +8°C° 0,1 mm 0 m/S 629 mmHg 95%
    06:00 +10°C° 0,1 mm 0 m/S 630 mmHg 93%
    07:00 +12°C° 0,1 mm 0 m/S 630 mmHg 90%
    08:00 +13°C° 0,4 mm 1 m/S 631 mmHg 87%
    09:00 +14°C° 0,4 mm 1 m/S 631 mmHg 84%
    10:00 +15°C° 0,4 mm 1 m/S 632 mmHg 81%
    11:00 +16°C° 0,8 mm 1 m/S 631 mmHg 81%
    12:00 +16°C° 0,8 mm 1 m/S 631 mmHg 81%
    13:00 +16°C° 0,8 mm 1 m/S 631 mmHg 80%
    14:00 +16°C° 0,9 mm 1 m/S 631 mmHg 81%
    15:00 +16°C° 0,9 mm 1 m/S 631 mmHg 81%
    16:00 +16°C° 0,9 mm 1 m/S 631 mmHg 81%
    17:00 +15°C° 0,8 mm 1 m/S 631 mmHg 85%
    18:00 +14°C° 0,8 mm 1 m/S 631 mmHg 89%
    19:00 +13°C° 0,8 mm 1 m/S 630 mmHg 93%
    20:00 +12°C° 0,3 mm 1 m/S 630 mmHg 95%
    21:00 +10°C° 0,3 mm 1 m/S 629 mmHg 96%
    22:00 +9°C° 0,3 mm 1 m/S 629 mmHg 97%
    23:00 +9°C° 0 mm 1 m/S 629 mmHg 97%

    2 Juni, Freitag

    Zeit Temperatur Niederschläge Wind Luftdruck Luftfeuchtigkeit
    00:00 +9°C° 0 mm 1 m/S 629 mmHg 97%
    01:00 +9°C° 0 mm 1 m/S 629 mmHg 97%
    02:00 +9°C° 0,4 mm 1 m/S 629 mmHg 97%
    03:00 +8°C° 0,4 mm 1 m/S 629 mmHg 97%
    04:00 +8°C° 0,4 mm 1 m/S 628 mmHg 96%
    05:00 +9°C° 0,1 mm 1 m/S 629 mmHg 94%
    06:00 +11°C° 0,1 mm 1 m/S 630 mmHg 91%
    07:00 +12°C° 0,1 mm 1 m/S 630 mmHg 89%
    08:00 +14°C° 0,1 mm 1 m/S 631 mmHg 81%
    09:00 +16°C° 0,1 mm 1 m/S 631 mmHg 73%
    10:00 +18°C° 0,1 mm 1 m/S 632 mmHg 65%
    11:00 +19°C° 0,4 mm 1 m/S 631 mmHg 66%
    12:00 +18°C° 0,4 mm 2 m/S 631 mmHg 66%
    13:00 +18°C° 0,4 mm 2 m/S 631 mmHg 66%
    14:00 +18°C° 0,7 mm 2 m/S 631 mmHg 69%
    15:00 +18°C° 0,7 mm 2 m/S 630 mmHg 72%
    16:00 +18°C° 0,7 mm 2 m/S 630 mmHg 75%
    17:00 +16°C° 0,6 mm 2 m/S 630 mmHg 80%
    18:00 +15°C° 0,6 mm 1 m/S 629 mmHg 85%
    19:00 +14°C° 0,6 mm 1 m/S 629 mmHg 90%
    20:00 +13°C° 0,2 mm 1 m/S 628 mmHg 92%
    21:00 +11°C° 0,2 mm 1 m/S 628 mmHg 93%
    22:00 +10°C° 0,2 mm 1 m/S 627 mmHg 94%
    23:00 +9°C° 0,1 mm 1 m/S 627 mmHg 94%

    3 Juni, Samstag

    Zeit Temperatur Niederschläge Wind Luftdruck Luftfeuchtigkeit
    00:00 +9°C° 0,1 mm 1 m/S 627 mmHg 95%
    01:00 +8°C° 0,1 mm 1 m/S 626 mmHg 95%
    02:00 +8°C° 0 mm 1 m/S 626 mmHg 94%
    03:00 +7°C° 0 mm 1 m/S 626 mmHg 94%
    04:00 +7°C° 0 mm 1 m/S 626 mmHg 94%
    05:00 +9°C° 0 mm 1 m/S 627 mmHg 90%
    06:00 +11°C° 0 mm 1 m/S 628 mmHg 85%
    07:00 +13°C° 0 mm 0 m/S 629 mmHg 81%
    08:00 +15°C° 0,2 mm 1 m/S 629 mmHg 76%
    09:00 +18°C° 0,2 mm 1 m/S 629 mmHg 70%
    10:00 +19°C° 0,2 mm 1 m/S 630 mmHg 65%
    11:00 +19°C° 0,6 mm 1 m/S 630 mmHg 65%
    12:00 +20°C° 0,6 mm 1 m/S 629 mmHg 66%
    13:00 +20°C° 0,6 mm 1 m/S 629 mmHg 67%
    14:00 +20°C° 0,6 mm 1 m/S 629 mmHg 69%
    15:00 +20°C° 0,6 mm 1 m/S 629 mmHg 70%
    16:00 +20°C° 0,6 mm 1 m/S 629 mmHg 71%
    17:00 +19°C° 0,6 mm 1 m/S 628 mmHg 77%
    18:00 +16°C° 0,6 mm 1 m/S 628 mmHg 82%
    19:00 +15°C° 0,6 mm 1 m/S 628 mmHg 87%
    20:00 +14°C° 0,2 mm 1 m/S 627 mmHg 89%
    21:00 +12°C° 0,2 mm 1 m/S 627 mmHg 91%
    22:00 +10°C° 0,2 mm 1 m/S 626 mmHg 93%
    23:00 +10°C° 0 mm 1 m/S 626 mmHg 93%
    Mehr zeigen